STARLINK-31126 (58675 NORAD) Tracking and Keplerian Element Data

This shows tracking and keplerian element data for the satellite.

Feedback or suggestion? Click here.




ElementValue
Catalog58675
NameSTARLINK-31126
Epoch Orbit338
Epoch Day12.91667824
Epoch Year2024
RAAN203.9474
Inclination43
Eccentricity0.0001483
Argument of Perigee278.5
Mean Anonmoly18.5176
Mean Motion15.7255974
Decay Rate-0.01679895
L11 58675U 23211J 24012.91667824 -.01679895 00000+0 -13768-1 0 9994
L22 58675 43.0000 203.9474 0001483 278.5000 18.5176 15.72559740 3384



Live tracking and technical data element details for STARLINK-31126 (NORAD 58675). STARLINK-31126 can be tracked NOW for your location showing map with azimuth and elevation plus other details from your city location.







IsCatalogInMostPopularTable: catalog: 58675, numindb: 22
Update: records affected: 1



GetName: 58675 STARLINK-31126

Hit Count: updated at: Wed, 17 Apr 2024 02:51:11 GMT